Fort Lewis, WA

2:31 AM PDT on May 25, 2018 (GMT -0700)
Gray Army Air Field

Weather History for KGRF - October, 2012

Change the Weather History Date:

Monday, October 1, 2012

  Actual Average Record
Temperature  
Mean Temperature 58 °F -  
Max Temperature 75 °F 65 °F 75 °F (2012)
Min Temperature 41 °F 45 °F 33 °F (1999)
Degree Days  
Heating Degree Days 7    
Growing Degree Days 8 (Base 50)    
Moisture  
Dew Point 47 °F    
Average Humidity 68    
Maximum Humidity 90    
Minimum Humidity 40    
Precipitation  
Precipitation 0.00 in - - ()
Sea Level Pressure  
Sea Level Pressure 30.23 in    
Wind  
Wind Speed 3 mph (SSW)    
Max Wind Speed 10 mph    
Max Gust Speed -    
Visibility 10 miles    
Events      
Averages and records for this station are not official NWS values.
T = Trace of Precipitation, MM = Missing Value Source: NWS Daily Summary

Daily Weather History Graph

Daily Weather History Graph

Search for Another Location

Airport or City:

Astronomy

Oct. 01, 2012 Rise Set
Actual Time 7:09 AM PDT 6:48 PM PDT
Civil Twilight 6:39 AM PDT 7:19 PM PDT
Nautical Twilight 6:04 AM PDT 7:54 PM PDT
Astronomical Twilight 5:28 AM PDT 8:30 PM PDT
Moon 7:17 PM PDT (10/1) 8:54 AM PDT (10/1)
Length of Visible Light 12h 39m
Length of Day
11h 38m
Full, 97% of the Moon is Illuminated
Oct 1
Full
Oct 8
Last Quarter
Oct 15
New
Oct 21
First Quarter
Oct 29
Full

Hourly Weather History & Observations

Time (PDT) Temp. Windchill Dew Point Humidity Pressure Visibility Wind Dir Wind Speed Gust Speed Precip Events Conditions
12:58 AM 47.7 °F - 39.6 °F 73% 30.35 in 10.0 mi Calm Calm - N/A   Clear
1:58 AM 46.2 °F 45.0 °F 38.5 °F 74% 30.35 in 10.0 mi SE 3.5 mph - N/A   Clear
2:58 AM 45.1 °F - 38.5 °F 77% 30.35 in 10.0 mi SE 2.3 mph - N/A   Clear
3:58 AM 42.1 °F 38.4 °F 37.4 °F 83% 30.34 in 10.0 mi SE 5.8 mph - N/A   Clear
4:58 AM 43.2 °F 40.5 °F 37.9 °F 82% 30.32 in 10.0 mi SE 4.6 mph - N/A   Clear
5:58 AM 42.4 °F - 37.2 °F 82% 30.32 in 10.0 mi SE 2.3 mph - N/A   Clear
6:58 AM 42.4 °F - 38.3 °F 85% 30.32 in 10.0 mi ESE 2.3 mph - N/A   Clear
7:58 AM 41.9 °F 38.2 °F 39.2 °F 90% 30.33 in 10.0 mi SE 5.8 mph - N/A   Clear
8:58 AM 50.0 °F - 43.2 °F 77% 30.32 in 10.0 mi Calm Calm - N/A   Clear
9:58 AM 55.6 °F - 46.4 °F 71% 30.30 in 10.0 mi SSW 2.3 mph - N/A   Clear
10:58 AM 60.6 °F - 46.4 °F 59% 30.29 in 10.0 mi Variable 3.5 mph - N/A   Clear
11:58 AM 65.1 °F - 47.1 °F 52% 30.28 in 10.0 mi NW 6.9 mph - N/A   Clear
12:58 PM 68.4 °F - 46.4 °F 45% 30.25 in 10.0 mi Variable 1.2 mph - N/A   Clear
1:58 PM 72.9 °F - 47.1 °F 40% 30.21 in 10.0 mi Variable 5.8 mph - N/A   Clear
2:58 PM 74.8 °F - 52.2 °F 45% 30.19 in 10.0 mi NW 5.8 mph - N/A   Clear
3:58 PM 75.2 °F - 53.2 °F 46% 30.17 in 10.0 mi NNW 6.9 mph - N/A   Clear
4:58 PM 74.5 °F - 54.7 °F 50% 30.16 in 10.0 mi Variable 4.6 mph - N/A   Clear
5:58 PM 74.1 °F - 54.7 °F 51% 30.13 in 10.0 mi Variable 1.2 mph - N/A   Clear
6:58 PM 70.9 °F - 53.6 °F 54% 30.12 in 10.0 mi SE 3.5 mph - N/A   Partly Cloudy
7:58 PM 69.4 °F - 56.7 °F 64% 30.12 in 10.0 mi SW 4.6 mph - N/A   Partly Cloudy
8:58 PM 67.1 °F - 56.7 °F 69% 30.11 in 10.0 mi SW 4.6 mph - N/A   Clear
9:58 PM 62.1 °F - 56.5 °F 82% 30.12 in 10.0 mi WSW 8.1 mph - N/A   Partly Cloudy
10:08 PM 62.6 °F - 55.4 °F 77% 30.11 in 10.0 mi West 10.4 mph - N/A   Mostly Cloudy
10:58 PM 61.0 °F - 54.9 °F 80% 30.13 in 10.0 mi West 6.9 mph - N/A   Overcast
11:58 PM 59.2 °F - 53.2 °F 81% 30.15 in 10.0 mi West 8.1 mph - N/A   Overcast